Location: *
(51.1248°S, 108.4023°W)
Time: 04:18:23
(UTC+00:00)

USA 234 - Pass Details

Date: 15 June 2021
Orbit: 1102 x 1105 km, 123.0° (Epoch: 28 July)

Event Time Altitude Azimuth Distance (km) Brightness Sun altitude
Rises 12:09:43 0° 50° (NE) 3,924 6.9 -27.9°
Reaches altitude 10° 12:12:13 10° 47° (NE) 2,971 6.1 -27.5°
Maximum altitude 12:18:46 68° 324° (NW) 1,190 3.2 -26.5°
Enters shadow 12:19:57 57° 273° (W) 1,291 3.2 -26.3°
